LYNX25 LPMT-LPFR

Flight info

Callsign LYNX25
Flight time 0h 30m
Altitude 19000
Route TROIA DCT ODEMI
Aircraft FA50/M-SDFGHIM1RWXY/H

Departure

Time 2026-05-06 19:49
Airport Montijo Air Base (LPMT)

Arrival

Time 2026-05-06 20:19
Airport Faro - Gago Coutinho International Airport (LPFR)
Time Latitude Longitude Altitude Speed Heading
2026-05-06 19:25 38.71379 -9.02237 52 ft 0 kts
2026-05-06 19:37 38.71380 -9.02237 52 ft 0 kts
2026-05-06 19:37 38.71385 -9.02237 52 ft 1 kts
2026-05-06 19:38 38.71411 -9.02200 52 ft 8 kts 84°
2026-05-06 19:38 38.71409 -9.02103 52 ft 13 kts 127°
2026-05-06 19:38 38.71323 -9.02084 52 ft 11 kts 152°
2026-05-06 19:38 38.71311 -9.01968 52 ft 16 kts 91°
2026-05-06 19:39 38.71312 -9.01798 52 ft 18 kts 90°
2026-05-06 19:39 38.71314 -9.01659 52 ft 18 kts 88°
2026-05-06 19:39 38.71315 -9.01471 52 ft 23 kts 89°
2026-05-06 19:39 38.71315 -9.01346 52 ft 7 kts 90°
2026-05-06 19:40 38.71315 -9.01284 52 ft 6 kts 90°
2026-05-06 19:40 38.71303 -9.01217 52 ft 8 kts 129°
2026-05-06 19:40 38.71257 -9.01154 52 ft 10 kts 133°
2026-05-06 19:40 38.71231 -9.01120 52 ft 1 kts 133°
2026-05-06 19:41 38.71230 -9.01117 52 ft 0 kts 133°
2026-05-06 19:47 38.71228 -9.01116 52 ft 1 kts 133°
2026-05-06 19:47 38.71201 -9.01081 52 ft 8 kts 149°
2026-05-06 19:47 38.71146 -9.01117 52 ft 12 kts 249°
2026-05-06 19:48 38.71084 -9.01365 52 ft 62 kts 253°
2026-05-06 19:48 38.70891 -9.02203 60 ft 131 kts 260°
2026-05-06 19:48 38.70551 -9.03522 294 ft 177 kts 255°
2026-05-06 19:48 38.70104 -9.05198 599 ft 221 kts 255°
2026-05-06 19:49 38.69594 -9.07213 959 ft 248 kts 255°
2026-05-06 19:49 38.68840 -9.09259 1282 ft 260 kts 231°
2026-05-06 19:49 38.67272 -9.10443 1702 ft 264 kts 193°
2026-05-06 19:49 38.65445 -9.10214 2255 ft 275 kts 156°
2026-05-06 19:50 38.64005 -9.08663 2800 ft 268 kts 119°
2026-05-06 19:50 38.63317 -9.06459 3362 ft 266 kts 110°
2026-05-06 19:50 38.62465 -9.04352 3916 ft 271 kts 119°
2026-05-06 19:50 38.61387 -9.02352 4469 ft 272 kts 134°
2026-05-06 19:51 38.59718 -9.01222 5050 ft 277 kts 165°
2026-05-06 19:51 38.57823 -9.00779 5618 ft 279 kts 169°
2026-05-06 19:51 38.55946 -9.00329 6161 ft 280 kts 167°
2026-05-06 19:51 38.54002 -8.99830 6798 ft 281 kts 167°
2026-05-06 19:52 38.52076 -8.99335 7455 ft 283 kts 167°
2026-05-06 19:52 38.50129 -8.98835 8114 ft 285 kts 167°
2026-05-06 19:52 38.48169 -8.98332 8774 ft 287 kts 167°
2026-05-06 19:52 38.46212 -8.97830 9428 ft 289 kts 167°
2026-05-06 19:53 38.44234 -8.97323 10085 ft 290 kts 167°
2026-05-06 19:53 38.42268 -8.96819 10734 ft 292 kts 167°
2026-05-06 19:53 38.40269 -8.96308 11390 ft 294 kts 167°
2026-05-06 19:53 38.38238 -8.95788 12068 ft 297 kts 167°
2026-05-06 19:54 38.36165 -8.95258 12841 ft 312 kts 167°
2026-05-06 19:54 38.33996 -8.94703 13617 ft 326 kts 167°
2026-05-06 19:54 38.31712 -8.94120 14399 ft 338 kts 167°
2026-05-06 19:54 38.29445 -8.93542 15147 ft 347 kts 167°
2026-05-06 19:55 38.27128 -8.92563 15906 ft 354 kts 148°
2026-05-06 19:55 38.25388 -8.90504 16673 ft 357 kts 128°
2026-05-06 19:55 38.23667 -8.88204 17442 ft 364 kts 137°
2026-05-06 19:55 38.21763 -8.86084 18199 ft 368 kts 138°
2026-05-06 19:56 38.19814 -8.83911 18914 ft 373 kts 137°
2026-05-06 19:56 38.17806 -8.81665 19024 ft 386 kts 137°
2026-05-06 19:56 38.15783 -8.79402 18983 ft 387 kts 137°
2026-05-06 19:56 38.13769 -8.77149 18980 ft 386 kts 137°
2026-05-06 19:57 38.11754 -8.74897 18974 ft 386 kts 137°
2026-05-06 19:57 38.09759 -8.72669 18967 ft 386 kts 137°
2026-05-06 19:57 38.07718 -8.70392 18958 ft 386 kts 137°
2026-05-06 19:57 38.05686 -8.68126 18950 ft 386 kts 137°
2026-05-06 19:58 38.03681 -8.65893 18946 ft 386 kts 137°
2026-05-06 19:58 38.01637 -8.63617 18940 ft 387 kts 137°
2026-05-06 19:58 37.99595 -8.61345 18938 ft 392 kts 137°
2026-05-06 19:58 37.97494 -8.59009 18949 ft 405 kts 137°
2026-05-06 19:59 37.95361 -8.56640 18940 ft 407 kts 137°
2026-05-06 19:59 37.93216 -8.54260 18688 ft 406 kts 137°
2026-05-06 19:59 37.91092 -8.51905 18333 ft 403 kts 137°
2026-05-06 19:59 37.89142 -8.49744 18005 ft 401 kts 137°
2026-05-06 20:00 37.87191 -8.47585 17660 ft 399 kts 137°
2026-05-06 20:00 37.85491 -8.45703 17312 ft 397 kts 137°
2026-05-06 20:00 37.83390 -8.43380 16879 ft 395 kts 137°
2026-05-06 20:00 37.81332 -8.41106 16452 ft 393 kts 137°
2026-05-06 20:01 37.79250 -8.38808 16018 ft 391 kts 137°
2026-05-06 20:01 37.77208 -8.36555 15590 ft 388 kts 138°
2026-05-06 20:01 37.75174 -8.34313 15162 ft 386 kts 138°
2026-05-06 20:01 37.73235 -8.32177 14754 ft 384 kts 138°
2026-05-06 20:02 37.71214 -8.29952 14327 ft 382 kts 138°
2026-05-06 20:02 37.69233 -8.27773 13905 ft 380 kts 139°
2026-05-06 20:02 37.67213 -8.25554 13467 ft 378 kts 139°
2026-05-06 20:02 37.65224 -8.23369 12992 ft 376 kts 139°
2026-05-06 20:03 37.63252 -8.21206 12515 ft 374 kts 139°
2026-05-06 20:03 37.61312 -8.19078 12043 ft 371 kts 139°
2026-05-06 20:03 37.59370 -8.16950 11568 ft 369 kts 139°
2026-05-06 20:03 37.57424 -8.14820 11088 ft 367 kts 138°
2026-05-06 20:04 37.55602 -8.12825 10631 ft 356 kts 138°
2026-05-06 20:04 37.53745 -8.10796 10142 ft 342 kts 138°
2026-05-06 20:04 37.51985 -8.08873 9661 ft 331 kts 138°
2026-05-06 20:04 37.50360 -8.07098 9204 ft 322 kts 138°
2026-05-06 20:05 37.48698 -8.05283 8725 ft 314 kts 137°
2026-05-06 20:05 37.47077 -8.03515 8248 ft 307 kts 137°
2026-05-06 20:05 37.45471 -8.01764 7766 ft 301 kts 137°
2026-05-06 20:05 37.43893 -8.00044 7285 ft 297 kts 137°
2026-05-06 20:06 37.42338 -7.98352 6805 ft 293 kts 137°
2026-05-06 20:06 37.40812 -7.96691 6328 ft 289 kts 137°
2026-05-06 20:06 37.39316 -7.95063 5856 ft 286 kts 137°
2026-05-06 20:06 37.37816 -7.93432 5379 ft 284 kts 137°
2026-05-06 20:07 37.36321 -7.91807 4901 ft 282 kts 137°
2026-05-06 20:07 37.34834 -7.90193 4423 ft 280 kts 137°
2026-05-06 20:07 37.33351 -7.88584 4008 ft 276 kts 138°
2026-05-06 20:07 37.31924 -7.87037 3975 ft 268 kts 138°
2026-05-06 20:08 37.30516 -7.85510 3997 ft 268 kts 138°
2026-05-06 20:08 37.29104 -7.83979 3996 ft 269 kts 138°
2026-05-06 20:08 37.27677 -7.82434 3995 ft 269 kts 138°
2026-05-06 20:08 37.26261 -7.80901 3995 ft 269 kts 138°
2026-05-06 20:09 37.24838 -7.79361 3995 ft 269 kts 138°
2026-05-06 20:09 37.23401 -7.77808 3995 ft 269 kts 138°
2026-05-06 20:09 37.21979 -7.76270 3995 ft 269 kts 138°
2026-05-06 20:09 37.20556 -7.74733 3995 ft 269 kts 138°
2026-05-06 20:10 37.19140 -7.73205 3995 ft 269 kts 138°
2026-05-06 20:10 37.17717 -7.71669 3995 ft 269 kts 138°
2026-05-06 20:10 37.16289 -7.70129 3995 ft 269 kts 138°
2026-05-06 20:10 37.14868 -7.68597 3995 ft 269 kts 138°
2026-05-06 20:11 37.13449 -7.67068 3996 ft 269 kts 138°
2026-05-06 20:11 37.12025 -7.65534 3996 ft 269 kts 138°
2026-05-06 20:11 37.10610 -7.64012 3992 ft 265 kts 137°
2026-05-06 20:11 37.09034 -7.62839 3994 ft 265 kts 165°
2026-05-06 20:12 37.07284 -7.62525 4020 ft 251 kts 182°
2026-05-06 20:12 37.05605 -7.62959 3998 ft 246 kts 202°
2026-05-06 20:12 37.04020 -7.63807 3998 ft 246 kts 206°
2026-05-06 20:12 37.02455 -7.64680 3995 ft 247 kts 205°
2026-05-06 20:13 37.00909 -7.65531 3986 ft 235 kts 205°
2026-05-06 20:13 36.99460 -7.66329 3978 ft 219 kts 207°
2026-05-06 20:13 36.98404 -7.67502 3994 ft 199 kts 243°
2026-05-06 20:13 36.97918 -7.69048 4002 ft 198 kts 256°
2026-05-06 20:14 36.97812 -7.70780 4003 ft 201 kts 273°
2026-05-06 20:14 36.97994 -7.72520 3997 ft 202 kts 278°
2026-05-06 20:14 36.98245 -7.74282 3830 ft 205 kts 279°
2026-05-06 20:14 36.98502 -7.76042 3204 ft 208 kts 279°
2026-05-06 20:15 36.98690 -7.77696 2954 ft 192 kts 278°
2026-05-06 20:15 36.98920 -7.79319 2769 ft 180 kts 280°
2026-05-06 20:15 36.99141 -7.80803 2514 ft 168 kts 280°
2026-05-06 20:15 36.99348 -7.82215 2223 ft 160 kts 280°
2026-05-06 20:16 36.99544 -7.83544 1933 ft 153 kts 280°
2026-05-06 20:16 36.99731 -7.84824 1628 ft 148 kts 280°
2026-05-06 20:16 36.99915 -7.86079 1329 ft 144 kts 281°
2026-05-06 20:16 37.00096 -7.87312 1068 ft 140 kts 281°
2026-05-06 20:17 37.00264 -7.88462 964 ft 134 kts 281°
2026-05-06 20:17 37.00438 -7.89593 962 ft 135 kts 282°
2026-05-06 20:17 37.00616 -7.90737 977 ft 131 kts 281°
2026-05-06 20:17 37.00779 -7.91870 882 ft 133 kts 281°
2026-05-06 20:18 37.00946 -7.93015 676 ft 133 kts 281°
2026-05-06 20:18 37.01100 -7.94165 388 ft 133 kts 281°
2026-05-06 20:18 37.01259 -7.95297 146 ft 125 kts 282°
2026-05-06 20:18 37.01406 -7.96350 21 ft 112 kts 280°
2026-05-06 20:19 37.01505 -7.97059 17 ft 68 kts 280°
2026-05-06 20:19 37.01568 -7.97545 19 ft 37 kts 279°
2026-05-06 20:19 37.01607 -7.97827 22 ft 20 kts 287°
2026-05-06 20:19 37.01698 -7.97834 24 ft 10 kts 46°
2026-05-06 20:20 37.01728 -7.97777 24 ft 5 kts 63°
2026-05-06 20:20 37.01747 -7.97719 25 ft 9 kts 71°
2026-05-06 20:20 37.01760 -7.97620 24 ft 14 kts 96°
2026-05-06 20:20 37.01751 -7.97470 23 ft 19 kts 63°
2026-05-06 20:21 37.01819 -7.97389 24 ft 10 kts 42°
2026-05-06 20:21 37.01830 -7.97284 23 ft 15 kts 101°
2026-05-06 20:21 37.01818 -7.97199 23 ft 7 kts 95°
2026-05-06 20:21 37.01813 -7.97158 23 ft 3 kts 98°
2026-05-06 20:22 37.01808 -7.97118 23 ft 7 kts 99°
2026-05-06 20:22 37.01790 -7.97054 22 ft 8 kts 141°
2026-05-06 20:22 37.01751 -7.97032 22 ft 6 kts 159°
2026-05-06 20:22 37.01738 -7.97026 21 ft 0 kts 159°